Time,TemperatureF,DewpointF,PressureIn,WindDirection,WindDirectionDegrees,WindSpeedMPH,WindSpeedGustMPH,Humidity,HourlyPrecipIn,Conditions,Clouds,dailyrainin,SolarRadiationWatts/m^2,SoftwareType,DateUTC
2015-03-28 00:01:00,67.8,-99.9,29.91,NNW,340,2.0,-999.0,0,-99.99,,,0.05,0,weatherlink.com 1.10,2015-03-28 04:01:00,
2015-03-28 00:16:00,67.5,-99.9,29.92,WSW,257,1.0,-999.0,0,-99.99,,,0.05,0,weatherlink.com 1.10,2015-03-28 04:16:00,
2015-03-28 00:31:00,67.1,-99.9,29.92,NNW,338,4.0,-999.0,0,-99.99,,,0.05,0,weatherlink.com 1.10,2015-03-28 04:31:00,
2015-03-28 00:47:00,66.6,-99.9,29.93,NNW,348,3.0,-999.0,0,-99.99,,,0.05,0,weatherlink.com 1.10,2015-03-28 04:47:00,
2015-03-28 01:02:00,66.0,0.0,29.95,NW,304,2.0,-999.0,7,-99.99,,,0.05,0,weatherlink.com 1.10,2015-03-28 05:02:00,
2015-03-28 01:17:00,65.6,5.0,29.95,NW,320,0.0,-999.0,9,-99.99,,,0.05,0,weatherlink.com 1.10,2015-03-28 05:17:00,
2015-03-28 01:32:00,65.2,9.0,29.96,North,350,6.0,-999.0,11,-99.99,,,0.05,0,weatherlink.com 1.10,2015-03-28 05:32:00,
2015-03-28 01:47:00,64.9,14.0,29.97,NNE,16,3.0,-999.0,14,-99.99,,,0.05,0,weatherlink.com 1.10,2015-03-28 05:47:00,
2015-03-28 02:02:00,64.5,19.0,29.98,WNW,301,3.0,-999.0,17,-99.99,,,0.05,0,weatherlink.com 1.10,2015-03-28 06:02:00,
2015-03-28 02:17:00,64.0,22.0,29.97,NW,321,5.0,-999.0,20,-99.99,,,0.05,0,weatherlink.com 1.10,2015-03-28 06:17:00,
2015-03-28 02:32:00,63.6,27.0,29.98,NW,311,6.0,-999.0,25,-99.99,,,0.05,0,weatherlink.com 1.10,2015-03-28 06:32:00,
2015-03-28 02:47:00,62.9,31.0,29.97,NNW,340,4.0,-999.0,30,-99.99,,,0.05,0,weatherlink.com 1.10,2015-03-28 06:47:00,
2015-03-28 03:02:00,62.3,47.0,29.98,North,9,10.0,-999.0,58,-99.99,,,0.05,0,weatherlink.com 1.10,2015-03-28 07:02:00,
2015-03-28 03:17:00,61.7,49.0,29.98,West,279,2.0,-999.0,64,-99.99,,,0.05,0,weatherlink.com 1.10,2015-03-28 07:17:00,
2015-03-28 03:32:00,61.1,49.0,29.98,NW,326,6.0,-999.0,64,-99.99,,,0.05,0,weatherlink.com 1.10,2015-03-28 07:32:00,
2015-03-28 03:48:00,60.7,48.0,29.99,NNW,329,7.0,-999.0,63,-99.99,,,0.05,0,weatherlink.com 1.10,2015-03-28 07:48:00,
2015-03-28 04:03:00,60.2,47.0,30.00,NW,317,3.0,-999.0,61,-99.99,,,0.05,0,weatherlink.com 1.10,2015-03-28 08:03:00,
2015-03-28 04:18:00,59.7,44.0,30.00,NNW,329,0.0,-999.0,56,-99.99,,,0.05,0,weatherlink.com 1.10,2015-03-28 08:18:00,
2015-03-28 04:33:00,59.1,41.0,30.00,NW,314,0.0,-999.0,52,-99.99,,,0.05,0,weatherlink.com 1.10,2015-03-28 08:33:00,
2015-03-28 04:48:00,58.9,37.0,30.00,NW,314,0.0,-999.0,44,-99.99,,,0.05,0,weatherlink.com 1.10,2015-03-28 08:48:00,
2015-03-28 05:03:00,58.7,31.0,30.02,NW,314,0.0,-999.0,35,-99.99,,,0.05,0,weatherlink.com 1.10,2015-03-28 09:03:00,
2015-03-28 05:18:00,58.4,24.0,30.02,NW,314,0.0,-999.0,27,-99.99,,,0.05,0,weatherlink.com 1.10,2015-03-28 09:18:00,
2015-03-28 05:33:00,58.1,16.0,30.02,NW,314,0.0,-999.0,19,-99.99,,,0.05,0,weatherlink.com 1.10,2015-03-28 09:33:00,
2015-03-28 05:48:00,57.7,13.0,30.02,NW,314,0.0,-999.0,17,-99.99,,,0.05,0,weatherlink.com 1.10,2015-03-28 09:48:00,
2015-03-28 06:03:00,57.2,10.0,30.03,NW,314,0.0,-999.0,15,-99.99,,,0.05,0,weatherlink.com 1.10,2015-03-28 10:03:00,
2015-03-28 06:18:00,56.8,12.0,30.03,NW,314,0.0,-999.0,17,-99.99,,,0.05,0,weatherlink.com 1.10,2015-03-28 10:18:00,
2015-03-28 06:33:00,56.5,11.0,30.04,NW,314,0.0,-999.0,16,-99.99,,,0.05,0,weatherlink.com 1.10,2015-03-28 10:33:00,
2015-03-28 06:48:00,56.3,6.0,30.05,NW,314,0.0,-999.0,13,-99.99,,,0.05,0,weatherlink.com 1.10,2015-03-28 10:48:00,
2015-03-28 07:03:00,55.7,7.0,30.05,NW,314,0.0,-999.0,14,-99.99,,,0.05,0,weatherlink.com 1.10,2015-03-28 11:03:00,
2015-03-28 07:18:00,55.1,21.0,30.05,NNW,340,2.0,-999.0,27,-99.99,,,0.05,0,weatherlink.com 1.10,2015-03-28 11:18:00,
2015-03-28 07:34:00,55.1,30.0,30.07,NW,313,3.0,-999.0,38,-99.99,,,0.05,12,weatherlink.com 1.10,2015-03-28 11:34:00,
2015-03-28 07:49:00,55.2,39.0,30.07,NNW,336,3.0,-999.0,54,-99.99,,,0.05,40,weatherlink.com 1.10,2015-03-28 11:49:00,
2015-03-28 08:04:00,55.5,44.0,30.08,NNW,344,3.0,-999.0,65,-99.99,,,0.05,62,weatherlink.com 1.10,2015-03-28 12:04:00,
2015-03-28 08:19:00,55.8,45.0,30.09,North,355,3.0,-999.0,68,-99.99,,,0.05,84,weatherlink.com 1.10,2015-03-28 12:19:00,
2015-03-28 08:34:00,56.1,46.0,30.10,NW,311,4.0,-999.0,69,-99.99,,,0.05,111,weatherlink.com 1.10,2015-03-28 12:34:00,
2015-03-28 08:49:00,56.4,46.0,30.10,NW,323,2.0,-999.0,69,-99.99,,,0.05,121,weatherlink.com 1.10,2015-03-28 12:49:00,
2015-03-28 09:04:00,56.4,46.0,30.11,NNE,22,3.0,-999.0,69,-99.99,,,0.05,220,weatherlink.com 1.10,2015-03-28 13:04:00,
2015-03-28 09:19:00,57.2,47.0,30.11,NNW,336,4.0,-999.0,69,-99.99,,,0.05,204,weatherlink.com 1.10,2015-03-28 13:19:00,
2015-03-28 09:34:00,58.0,47.0,30.12,North,360,5.0,-999.0,68,-99.99,,,0.05,323,weatherlink.com 1.10,2015-03-28 13:34:00,
2015-03-28 09:49:00,59.1,47.0,30.12,NNE,26,5.0,-999.0,64,-99.99,,,0.05,601,weatherlink.com 1.10,2015-03-28 13:49:00,
2015-03-28 10:04:00,60.5,47.0,30.12,NW,306,5.0,-999.0,62,-99.99,,,0.05,330,weatherlink.com 1.10,2015-03-28 14:04:00,
2015-03-28 10:19:00,61.3,49.0,30.13,NNW,331,9.0,-999.0,65,-99.99,,,0.05,585,weatherlink.com 1.10,2015-03-28 14:19:00,
2015-03-28 10:34:00,62.1,49.0,30.13,NNW,340,7.0,-999.0,62,-99.99,,,0.05,489,weatherlink.com 1.10,2015-03-28 14:34:00,
2015-03-28 10:50:00,62.6,50.0,30.14,North,355,5.0,-999.0,63,-99.99,,,0.05,668,weatherlink.com 1.10,2015-03-28 14:50:00,
2015-03-28 11:20:00,63.4,50.0,30.13,NW,325,7.0,-999.0,61,-99.99,,,0.05,828,weatherlink.com 1.10,2015-03-28 15:20:00,
2015-03-28 11:35:00,64.5,49.0,30.14,North,351,6.0,-999.0,57,-99.99,,,0.05,531,weatherlink.com 1.10,2015-03-28 15:35:00,
2015-03-28 11:50:00,64.2,49.0,30.14,NNW,327,5.0,-999.0,59,-99.99,,,0.05,490,weatherlink.com 1.10,2015-03-28 15:50:00,
2015-03-28 12:05:00,64.2,53.0,30.13,WNW,293,0.0,-999.0,67,-99.99,,,0.05,812,weatherlink.com 1.10,2015-03-28 16:05:00,
2015-03-28 12:20:00,65.4,49.0,30.13,North,355,6.0,-999.0,56,-99.99,,,0.05,923,weatherlink.com 1.10,2015-03-28 16:20:00,
2015-03-28 12:35:00,65.8,49.0,30.13,NNW,348,9.0,-999.0,55,-99.99,,,0.05,635,weatherlink.com 1.10,2015-03-28 16:35:00,
2015-03-28 12:50:00,66.7,48.0,30.13,NNW,327,5.0,-999.0,52,-99.99,,,0.05,886,weatherlink.com 1.10,2015-03-28 16:50:00,
2015-03-28 13:05:00,66.6,48.0,30.13,NNW,327,6.0,-999.0,51,-99.99,,,0.05,420,weatherlink.com 1.10,2015-03-28 17:05:00,
2015-03-28 13:20:00,67.3,47.0,30.13,NNW,346,14.0,-999.0,48,-99.99,,,0.05,777,weatherlink.com 1.10,2015-03-28 17:20:00,
2015-03-28 13:35:00,66.7,47.0,30.12,WNW,284,10.0,-999.0,49,-99.99,,,0.05,570,weatherlink.com 1.10,2015-03-28 17:35:00,
2015-03-28 13:50:00,67.4,48.0,30.12,WNW,296,7.0,-999.0,51,-99.99,,,0.05,916,weatherlink.com 1.10,2015-03-28 17:50:00,
2015-03-28 14:05:00,68.3,45.0,30.12,WNW,295,10.0,-999.0,44,-99.99,,,0.05,517,weatherlink.com 1.10,2015-03-28 18:05:00,
2015-03-28 14:21:00,68.4,47.0,30.12,WNW,296,3.0,-999.0,46,-99.99,,,0.05,849,weatherlink.com 1.10,2015-03-28 18:21:00,
2015-03-28 14:36:00,69.4,47.0,30.11,West,279,2.0,-999.0,45,-99.99,,,0.05,768,weatherlink.com 1.10,2015-03-28 18:36:00,
2015-03-28 14:51:00,69.9,49.0,30.11,WNW,301,2.0,-999.0,47,-99.99,,,0.05,659,weatherlink.com 1.10,2015-03-28 18:51:00,
2015-03-28 15:06:00,69.7,50.0,30.11,NW,321,6.0,-999.0,49,-99.99,,,0.05,682,weatherlink.com 1.10,2015-03-28 19:06:00,
2015-03-28 15:21:00,69.7,49.0,30.10,North,9,0.0,-999.0,48,-99.99,,,0.05,772,weatherlink.com 1.10,2015-03-28 19:21:00,
2015-03-28 15:36:00,69.7,48.0,30.10,WNW,292,8.0,-999.0,46,-99.99,,,0.05,714,weatherlink.com 1.10,2015-03-28 19:36:00,
2015-03-28 15:51:00,69.8,47.0,30.10,NNE,23,5.0,-999.0,45,-99.99,,,0.05,404,weatherlink.com 1.10,2015-03-28 19:51:00,
2015-03-28 16:06:00,68.6,46.0,30.10,West,276,1.0,-999.0,45,-99.99,,,0.05,374,weatherlink.com 1.10,2015-03-28 20:06:00,
2015-03-28 16:21:00,68.5,46.0,30.09,NW,323,5.0,-999.0,45,-99.99,,,0.05,584,weatherlink.com 1.10,2015-03-28 20:21:00,
2015-03-28 16:36:00,68.4,46.0,30.09,WNW,294,6.0,-999.0,45,-99.99,,,0.05,408,weatherlink.com 1.10,2015-03-28 20:36:00,
2015-03-28 16:51:00,68.8,48.0,30.08,NW,311,3.0,-999.0,47,-99.99,,,0.05,624,weatherlink.com 1.10,2015-03-28 20:51:00,
2015-03-28 17:06:00,69.6,47.0,30.08,NW,317,2.0,-999.0,45,-99.99,,,0.05,420,weatherlink.com 1.10,2015-03-28 21:06:00,
2015-03-28 17:21:00,69.6,48.0,30.09,NW,306,0.0,-999.0,47,-99.99,,,0.05,469,weatherlink.com 1.10,2015-03-28 21:21:00,
2015-03-28 17:37:00,69.4,47.0,30.09,NNW,338,0.0,-999.0,45,-99.99,,,0.05,243,weatherlink.com 1.10,2015-03-28 21:37:00,
2015-03-28 17:52:00,68.6,47.0,30.09,WNW,300,3.0,-999.0,47,-99.99,,,0.05,258,weatherlink.com 1.10,2015-03-28 21:52:00,
2015-03-28 18:07:00,68.4,48.0,30.09,WNW,300,6.0,-999.0,48,-99.99,,,0.05,149,weatherlink.com 1.10,2015-03-28 22:07:00,
2015-03-28 18:22:00,67.5,48.0,30.10,WNW,292,0.0,-999.0,50,-99.99,,,0.05,114,weatherlink.com 1.10,2015-03-28 22:22:00,
2015-03-28 18:37:00,66.9,49.0,30.11,WNW,303,2.0,-999.0,52,-99.99,,,0.05,130,weatherlink.com 1.10,2015-03-28 22:37:00,
2015-03-28 18:52:00,66.7,50.0,30.11,West,263,0.0,-999.0,55,-99.99,,,0.05,46,weatherlink.com 1.10,2015-03-28 22:52:00,
2015-03-28 19:07:00,65.8,50.0,30.12,West,267,0.0,-999.0,58,-99.99,,,0.05,42,weatherlink.com 1.10,2015-03-28 23:07:00,
2015-03-28 19:22:00,65.0,52.0,30.12,West,267,0.0,-999.0,64,-99.99,,,0.05,16,weatherlink.com 1.10,2015-03-28 23:22:00,
2015-03-28 19:37:00,64.0,52.0,30.13,WSW,245,0.0,-999.0,66,-99.99,,,0.00,0,weatherlink.com 1.10,2015-03-28 23:37:00,
2015-03-28 19:52:00,62.8,52.0,30.13,WSW,245,0.0,-999.0,67,-99.99,,,0.00,0,weatherlink.com 1.10,2015-03-28 23:52:00,
2015-03-28 20:07:00,61.6,49.0,30.13,WSW,245,0.0,-999.0,63,-99.99,,,0.00,0,weatherlink.com 1.10,2015-03-29 00:07:00,
2015-03-28 20:22:00,60.3,43.0,30.13,WSW,245,0.0,-999.0,54,-99.99,,,0.00,0,weatherlink.com 1.10,2015-03-29 00:22:00,
2015-03-28 20:37:00,59.5,40.0,30.14,WSW,245,0.0,-999.0,49,-99.99,,,0.00,0,weatherlink.com 1.10,2015-03-29 00:37:00,
2015-03-28 20:52:00,58.6,37.0,30.15,WSW,245,0.0,-999.0,44,-99.99,,,0.00,0,weatherlink.com 1.10,2015-03-29 00:52:00,
2015-03-28 21:08:00,57.9,34.0,30.16,WSW,245,0.0,-999.0,40,-99.99,,,0.00,0,weatherlink.com 1.10,2015-03-29 01:08:00,
2015-03-28 21:23:00,57.4,30.0,30.17,WSW,245,0.0,-999.0,35,-99.99,,,0.00,0,weatherlink.com 1.10,2015-03-29 01:23:00,
2015-03-28 21:38:00,56.8,25.0,30.17,WSW,245,0.0,-999.0,29,-99.99,,,0.00,0,weatherlink.com 1.10,2015-03-29 01:38:00,
2015-03-28 21:53:00,56.4,17.0,30.18,WSW,245,0.0,-999.0,21,-99.99,,,0.00,0,weatherlink.com 1.10,2015-03-29 01:53:00,
2015-03-28 22:08:00,56.1,7.0,30.18,WSW,245,0.0,-999.0,14,-99.99,,,0.00,0,weatherlink.com 1.10,2015-03-29 02:08:00,
2015-03-28 22:23:00,55.8,-3.0,30.18,WSW,245,0.0,-999.0,9,-99.99,,,0.00,0,weatherlink.com 1.10,2015-03-29 02:23:00,
2015-03-28 22:38:00,55.4,-5.0,30.19,WSW,245,0.0,-999.0,8,-99.99,,,0.00,0,weatherlink.com 1.10,2015-03-29 02:38:00,
2015-03-28 22:53:00,55.0,-12.0,30.20,WSW,245,0.0,-999.0,6,-99.99,,,0.00,0,weatherlink.com 1.10,2015-03-29 02:53:00,
2015-03-28 23:08:00,54.8,-33.0,30.20,WSW,245,0.0,-999.0,2,-99.99,,,0.00,0,weatherlink.com 1.10,2015-03-29 03:08:00,
2015-03-28 23:23:00,54.5,-99.9,30.20,WSW,245,0.0,-999.0,0,-99.99,,,0.00,0,weatherlink.com 1.10,2015-03-29 03:23:00,
2015-03-28 23:38:00,53.7,13.0,30.20,NNW,337,0.0,-999.0,20,-99.99,,,0.00,0,weatherlink.com 1.10,2015-03-29 03:38:00,